Baltimore, MD

8:45 PM EDT on July 20, 2017 (GMT -0400)
Baltimore-Washington International

Weather History for KBWI - February, 2012

Change the Weather History Date:

Thursday, February 16, 2012

  Actual Average Record
Temperature  
Mean Temperature 40 °F 36 °F  
Max Temperature 45 °F 45 °F 75 °F (1954)
Min Temperature 35 °F 27 °F 5 °F (1905)
Degree Days  
Heating Degree Days 25 29  
Month to date heating degree days 398 486  
Since 1 July heating degree days 2632 3262  
Cooling Degree Days 0 0  
Month to date cooling degree days 0 0  
Year to date cooling degree days 0 0  
Moisture  
Dew Point 38 °F    
Average Humidity 85    
Maximum Humidity 100    
Minimum Humidity 70    
Precipitation  
Precipitation 0.12 in 0.10 in 2.01 in (2003)
Month to date precipitation 0.62 1.64  
Year to date precipitation 3.16 4.69  
Snow  
Snow 0.00 in 0.30 in 21.80 in (2003)
Month to date snowfall 0.5 5.0  
Since 1 July snowfall 1.8 15.2  
Snow Depth 0.00 in    
Sea Level Pressure  
Sea Level Pressure 30.15 in    
Wind  
Wind Speed 2 mph (SE)    
Max Wind Speed 8 mph    
Max Gust Speed 12 mph    
Visibility 6 miles    
Events Fog , Rain    
T = Trace of Precipitation, MM = Missing Value Source: NWS Daily Summary

Daily Weather History Graph

Daily Weather History Graph

Search for Another Location

Airport or City:

Trip Planner

Search our weather history database for the weather conditions in past years. The results will help you decide how hot, cold, wet, or windy it might be!

Date:

Astronomy

Feb. 16, 2012 Rise Set
Actual Time 6:57 AM EST 5:44 PM EST
Civil Twilight 6:30 AM EST 6:11 PM EST
Nautical Twilight 5:59 AM EST 6:43 PM EST
Astronomical Twilight 5:28 AM EST 7:14 PM EST
Moon 2:50 AM EST (2/16) 12:35 PM EST (2/16)
Length of Visible Light 11h 41m
Length of Day
10h 46m
Waning Crescent, 28% of the Moon is Illuminated
Feb 16
Waning Crescent
Feb 21
New
Feb 29
First Quarter
Mar 8
Full
Mar 14
Last Quarter

Hourly Weather History & Observations

Time (EST) Temp. Windchill Dew Point Humidity Pressure Visibility Wind Dir Wind Speed Gust Speed Precip Events Conditions
12:54 AM 35.1 °F - 28.9 °F 78% 30.30 in 10.0 mi Calm Calm - N/A   Mostly Cloudy
1:54 AM 36.0 °F - 30.0 °F 79% 30.29 in 10.0 mi Calm Calm - N/A   Mostly Cloudy
2:54 AM 37.0 °F - 30.0 °F 76% 30.27 in 10.0 mi Calm Calm - N/A   Overcast
3:54 AM 37.9 °F - 30.9 °F 76% 30.26 in 10.0 mi Calm Calm - N/A   Overcast
4:54 AM 37.9 °F - 33.1 °F 83% 30.28 in 10.0 mi Calm Calm - 0.00 in Rain Light Rain
5:54 AM 39.9 °F 35.1 °F 34.0 °F 79% 30.26 in 10.0 mi East 6.9 mph - 0.00 in   Overcast
6:54 AM 39.0 °F - 34.0 °F 82% 30.25 in 8.0 mi Calm Calm - N/A   Overcast
7:54 AM 39.9 °F 35.1 °F 35.1 °F 83% 30.24 in 6.0 mi ESE 6.9 mph - N/A   Haze
8:54 AM 43.0 °F 41.3 °F 36.0 °F 76% 30.25 in 7.0 mi South 3.5 mph - N/A   Overcast
9:54 AM 45.0 °F - 36.0 °F 71% 30.24 in 7.0 mi Calm Calm - N/A   Overcast
10:54 AM 45.0 °F 41.8 °F 37.0 °F 74% 30.21 in 6.0 mi SSE 5.8 mph - 0.00 in Rain Light Rain
11:54 AM 45.0 °F 43.5 °F 39.0 °F 80% 30.19 in 8.0 mi SE 3.5 mph - 0.00 in Rain Light Rain
12:54 PM 44.1 °F 42.5 °F 41.0 °F 89% 30.16 in 4.0 mi ESE 3.5 mph - 0.01 in Rain Light Rain
1:54 PM 45.0 °F 42.6 °F 42.1 °F 90% 30.11 in 4.0 mi ESE 4.6 mph - 0.04 in Rain Light Rain
2:54 PM 45.0 °F - 43.0 °F 93% 30.11 in 2.5 mi Calm Calm - 0.02 in Rain Light Rain
3:21 PM 44.6 °F - 42.8 °F 93% 30.09 in 3.0 mi Calm Calm - 0.03 in Rain Light Rain
3:54 PM 44.6 °F - 42.8 °F 93% 30.10 in 4.0 mi Calm Calm - N/A Rain Light Rain
4:10 PM 44.6 °F 41.4 °F 42.8 °F 93% 30.08 in 3.0 mi SE 5.8 mph - 0.00 in Rain Light Rain
4:54 PM 45.0 °F 42.6 °F 42.1 °F 90% 30.03 in 4.0 mi SE 4.6 mph - 0.00 in   Overcast
5:54 PM 44.1 °F - 43.0 °F 96% 30.06 in 4.0 mi Calm Calm - N/A   Overcast
6:54 PM 44.1 °F - 42.1 °F 93% 30.06 in 4.0 mi Calm Calm - N/A   Overcast
7:54 PM 44.6 °F - 42.8 °F 93% 30.05 in 3.0 mi Calm Calm - N/A   Overcast
8:54 PM 41.0 °F - 39.9 °F 96% 30.04 in 5.0 mi Calm Calm - N/A   Scattered Clouds
9:30 PM 39.2 °F - 39.2 °F 100% 30.03 in 6.0 mi Calm Calm - N/A   Partly Cloudy
9:54 PM 39.0 °F - 37.9 °F 96% 30.03 in 6.0 mi Calm Calm - N/A   Mostly Cloudy
10:54 PM 37.9 °F - 37.9 °F 100% 30.03 in 6.0 mi Calm Calm - N/A Fog Shallow Fog
11:54 PM 39.0 °F - 37.9 °F 96% 30.02 in 4.0 mi Calm Calm - N/A Fog Patches of Fog